Theta_e
301 315 322 321 322 325 331 335 329 327 327 325 323 321 317 313 310 308 306 303 302 301 301 300 299 300 300 300 300 301 303 303
316 320 320 321 325 329 332 326 326 325 324 322 319 315 312 308 305 304 301 300 298 297 297 297 298 299 299 299 300 301 301 302
320 320 320 326 329 327 325 324 323 323 319 316 311 309 306 304 301 300 299 298 297 296 295 295 296 297 299 297 298 298 298 299
322 322 327 325 322 321 321 320 320 317 314 311 309 306 303 301 300 298 297 295 293 293 292 292 293 294 296 297 295 295 296 297
323 322 321 319 319 319 317 315 314 313 310 309 306 304 302 300 298 296 294 292 291 290 290 291 291 293 294 295 294 294 295 296
318 317 317 317 316 314 313 313 311 309 308 307 306 304 301 299 296 294 292 290 288 288 288 289 289 292 293 293 292 292 292 293
315 315 312 312 311 311 310 309 310 307 306 306 305 303 300 298 295 292 291 288 288 288 288 287 287 288 292 292 290 291 291 291
309 309 308 308 308 309 308 307 307 306 305 304 303 302 300 297 295 293 290 289 288 287 286 286 289 287 292 292 290 290 290 289
308 308 305 305 307 305 303 302 300 301 300 300 300 300 298 297 295 293 290 288 287 286 285 285 286 290 291 292 291 290 288 289
305 304 303 304 305 302 297 294 297 297 295 294 296 298 298 297 294 290 289 286 285 285 285 285 286 286 292 291 292 291 290 289
304 302 301 301 300 298 293 292 292 291 290 290 290 292 294 294 291 287 285 285 285 284 285 285 285 286 288 290 291 291 292 290
301 300 296 293 293 292 290 290 290 288 287 287 288 288 287 288 287 286 285 284 284 285 285 285 286 287 288 288 288 289 289 289
297 294 292 290 290 289 289 289 288 286 286 286 286 286 285 285 285 285 284 284 285 284 284 286 287 286 288 289 288 288 288 288
295 293 292 291 290 288 288 288 287 286 285 285 285 285 286 286 285 285 289 288 288 287 287 287 287 288 289 289 289 288 288 287
296 294 293 292 290 289 289 289 288 286 284 285 285 286 285 284 285 285 284 287 289 289 289 289 289 289 289 288 288 287 287 286
295 295 294 293 292 290 291 290 289 287 286 288 285 285 285 284 284 284 285 286 285 286 288 288 288 288 288 287 287 286 285 285
292 292 292 293 293 292 292 291 289 287 286 285 285 284 284 285 285 284 284 285 285 285 286 286 286 286 286 286 285 285 284 283
290 288 290 290 290 291 292 291 289 288 288 287 286 286 286 285 284 284 284 284 284 285 285 284 285 285 284 283 284 284 284 283
288 287 288 289 289 292 291 291 290 289 289 288 288 287 286 286 284 284 284 284 284 284 284 283 280 284 283 283 283 283 283 283
288 287 287 288 289 290 290 289 289 288 287 287 288 287 286 285 284 284 284 284 285 284 284 283 280 283 283 283 283 283 283 283
Wind_Speed
7 8 13 15 15 15 16 15 16 17 17 16 16 15 15 16 15 14 14 14 13 12 12 11 11 9 8 8 8 8 7 7
7 11 13 15 17 18 18 16 18 18 18 17 17 16 16 14 14 15 15 14 14 12 11 11 11 10 10 8 8 7 7 7
14 15 14 16 18 17 17 17 19 19 19 18 17 17 16 15 15 16 16 15 12 12 12 11 10 10 8 8 7 7 7 8
16 18 17 17 20 18 19 19 19 20 20 19 18 18 17 16 16 17 16 13 12 12 12 12 11 8 14 13 7 6 7 8
18 19 18 18 19 21 20 19 19 20 20 20 18 18 18 16 15 16 14 13 12 13 12 11 11 9 14 11 11 5 7 7
20 19 17 18 18 21 19 19 21 21 20 20 19 18 18 15 16 16 14 11 12 10 10 10 9 9 14 11 11 7 7 6
20 20 21 19 19 20 21 21 21 21 20 18 18 18 18 16 16 14 11 12 11 11 9 9 9 8 12 12 8 6 8 9
23 23 22 21 18 19 22 21 20 20 18 17 17 17 17 17 15 13 11 11 11 9 10 7 12 8 13 12 9 6 8 6
25 23 22 21 20 21 23 21 20 16 17 18 17 16 17 16 15 12 11 11 10 9 9 7 9 10 10 13 11 7 5 7
27 23 21 18 19 21 23 22 16 17 17 18 17 15 12 12 15 11 10 10 10 8 8 8 7 7 12 11 12 12 10 8
23 24 24 19 17 20 23 17 17 18 18 17 15 15 13 11 12 11 9 8 7 7 7 6 6 5 5 13 15 13 15 9
21 23 24 21 18 19 20 18 17 18 17 15 13 14 12 10 8 7 8 7 6 7 6 6 5 5 6 6 6 7 11 9
14 24 22 20 19 18 16 16 17 17 15 14 13 11 12 10 9 7 7 5 5 6 4 4 6 5 5 5 8 6 6 8
21 22 22 19 19 17 15 14 15 16 15 11 10 9 9 9 9 8 12 10 11 11 7 6 3 3 6 13 13 13 12 10
19 20 20 17 17 17 14 13 15 15 14 12 10 10 9 9 8 7 8 8 15 11 11 11 11 10 11 11 11 12 12 7
17 18 17 16 16 15 13 14 15 14 12 17 9 8 8 7 6 6 6 8 7 6 11 11 12 13 12 12 10 9 6 7
15 16 14 14 14 13 12 13 13 12 10 8 8 7 6 7 6 6 6 6 6 6 5 8 8 12 14 13 10 6 5 6
13 11 10 11 12 9 12 12 12 8 8 13 9 7 6 6 5 6 6 6 6 5 5 4 2 6 7 6 5 4 4 4
11 11 10 11 9 9 10 11 10 6 6 6 10 6 6 6 5 6 6 6 6 5 5 3 4 7 5 4 4 4 4 4
12 12 10 7 9 9 9 9 9 6 6 6 6 6 6 5 5 6 6 6 6 6 4 4 4 5 4 4 4 4 4 4
Wind_Direction
218 155 155 150 150 149 148 146 125 121 124 121 115 114 114 108 108 111 106 105 97 87 85 81 74 67 65 58 55 53 53 46
156 146 149 150 151 153 142 126 125 119 122 117 116 116 110 112 112 110 101 95 93 87 78 77 73 67 55 54 58 56 50 42
151 143 148 153 142 129 128 124 119 126 118 112 111 107 105 106 105 100 93 88 87 85 85 73 65 58 48 53 51 48 45 43
149 145 145 136 126 127 125 123 124 120 116 116 114 109 107 104 99 94 91 89 83 82 73 71 64 58 49 54 64 62 57 54
138 130 128 124 126 126 120 123 120 116 115 112 110 110 106 102 100 95 92 87 87 77 72 71 63 53 44 48 60 62 60 48
125 119 117 117 117 111 118 124 115 115 112 111 112 109 105 104 99 93 91 88 79 79 73 67 64 48 42 47 58 57 55 43
120 114 113 112 113 116 119 113 114 110 110 110 112 114 109 105 97 98 97 92 82 76 74 69 65 47 42 48 55 59 62 51
113 109 106 106 110 116 109 106 104 103 108 108 105 104 103 103 104 100 95 88 87 80 72 58 64 60 45 53 57 63 61 53
105 105 104 105 109 106 100 97 92 100 99 96 94 96 101 104 105 102 97 90 86 77 74 56 54 46 44 48 56 68 64 59
103 103 94 96 102 105 97 91 100 98 94 91 90 94 99 103 104 100 92 93 89 84 80 67 49 41 47 49 60 68 64 65
102 102 100 94 100 99 98 99 98 94 88 87 89 91 94 99 105 102 92 90 90 83 80 73 59 41 50 49 54 59 63 64
94 104 95 92 88 90 96 101 97 95 94 93 94 93 93 89 86 90 97 95 91 85 83 80 68 55 50 41 53 53 57 59
102 91 91 92 90 86 87 94 99 96 94 93 91 91 93 90 77 87 95 71 93 106 91 92 86 63 33 75 76 59 61 55
86 92 93 92 90 89 89 91 97 100 95 90 94 98 98 98 99 87 62 88 94 89 93 97 66 75 84 74 72 62 53 41
90 93 94 95 95 93 92 91 93 93 101 107 106 105 107 108 105 110 108 72 71 67 82 82 77 81 74 76 71 64 51 49
90 94 94 97 96 94 95 96 95 98 101 101 103 107 109 108 108 113 110 100 99 77 45 68 67 67 63 59 63 58 56 52
80 83 89 95 96 96 101 103 103 104 103 102 102 95 99 111 105 92 97 110 106 99 89 57 41 62 61 54 57 67 67 64
81 79 86 98 99 98 104 107 101 99 104 117 111 112 107 99 102 113 110 108 109 104 90 81 55 63 60 52 49 55 62 72
71 73 80 94 90 97 104 110 115 117 118 120 122 110 113 118 116 116 119 121 114 105 94 75 78 93 84 69 57 47 45 66
75 61 50 66 91 94 96 105 109 114 121 128 127 126 124 116 113 118 123 120 122 120 111 83 62 81 88 73 60 51 44 67